KTXEAGLE7 Weather Reports


time (UTC)temp
C
wind
direction
speed
KPH
gust
KPH
rain 1hr
cm
rain 24hr
cm
rain mn
cm
humidity
%
barometer
mb
20260509064528 22 136 8.0 11.3 0.00 0.05 0.00 99 1010.5
20260509063024 22 124 4.8 11.3 0.00 0.05 0.00 99 1010.7
20260509061523 22 126 4.8 11.3 0.00 0.05 0.00 99 1010.9
20260509060019 22 125 4.8 9.7 0.00 0.05 0.00 99 1010.9
20260509054519 22 124 3.2 6.4 0.00 0.05 0.00 99 1011.0
20260509053018 22 134 3.2 8.0 0.00 0.05 0.00 99 1011.0
20260509051516 22 125 6.4 12.9 0.00 0.05 0.00 99 1010.9
20260509050020 22 128 8.0 14.5 0.00 0.05 0.05 98 1011.1
20260509044518 22 132 8.0 16.1 0.00 0.05 0.05 98 1010.8
20260509043015 22 122 12.9 17.7 0.00 0.05 0.05 98 1010.7
20260509041513 22 131 8.0 14.5 0.00 0.05 0.05 98 1010.7
20260509040025 22 119 6.4 9.7 0.00 0.05 0.05 98 1010.7
20260509034512 22 95 4.8 11.3 0.00 0.05 0.05 97 1010.8
20260509033012 22 101 4.8 9.7 0.00 0.05 0.05 97 1010.7
20260509031512 22 95 4.8 9.7 0.00 0.05 0.05 97 1010.6
20260509030019 22 62 4.8 8.0 0.00 0.05 0.05 97 1010.3
20260509024514 22 82 3.2 6.4 0.00 0.05 0.05 97 1010.4
20260509023010 22 82 3.2 4.8 0.00 0.05 0.05 96 1010.2
20260509021509 22 55 1.6 6.4 0.00 0.05 0.05 96 1009.9
20260509020009 22 81 3.2 6.4 0.00 0.05 0.05 96 1009.7
20260509014508 22 81 3.2 8.0 0.00 0.05 0.05 96 1009.5
20260509013008 22 73 4.8 11.3 0.00 0.05 0.05 96 1009.6
20260509011508 22 117 6.4 11.3 0.00 0.05 0.05 96 1009.6
20260509010006 22 87 4.8 11.3 0.00 0.05 0.05 95 1009.6
20260509004507 22 128 6.4 11.3 0.00 0.05 0.05 95 1009.5
20260509003009 22 84 8.0 16.1 0.00 0.05 0.05 95 1009.5
20260509001509 22 100 8.0 12.9 0.00 0.05 0.05 95 1009.4
20260509000005 23 100 9.7 14.5 0.00 0.05 0.05 94 1009.4
20260508234505 23 104 8.0 17.7 0.00 0.05 0.05 94 1009.5
20260508233003 23 100 8.0 14.5 0.00 0.05 0.05 94 1009.3
20260508231503 23 107 9.7 14.5 0.00 0.05 0.05 94 1009.3
20260508230003 23 65 9.7 14.5 0.00 0.05 0.05 94 1009.3
20260508224647 23 94 9.7 14.5 0.00 0.05 0.05 94 1009.5
20260508223100 23 74 3.2 14.5 0.00 0.05 0.05 93 1009.7
20260508221559 23 98 9.7 14.5 0.00 0.05 0.05 93 1009.5
20260508220058 23 102 8.0 14.5 0.00 0.05 0.05 93 1009.7
20260508214556 23 115 8.0 16.1 0.00 0.05 0.05 94 1009.8
20260508213053 22 83 9.7 12.9 0.00 0.05 0.05 94 1009.8
20260508211552 22 121 8.0 12.9 0.00 0.05 0.05 94 1010.0
20260508210048 22 113 4.8 12.9 0.00 0.05 0.05 94 1010.4
20260508204544 22 73 6.4 12.9 0.00 0.05 0.05 94 1010.8
20260508203043 22 107 6.4 14.5 0.00 0.05 0.05 95 1010.8
20260508201537 21 90 8.0 16.1 0.00 0.05 0.05 95 1010.9
20260508200037 21 107 11.3 17.7 0.00 0.05 0.05 95 1011.2
20260508194540 21 97 8.0 14.5 0.00 0.05 0.05 95 1011.1
20260508193033 21 80 6.4 12.9 0.00 0.05 0.05 96 1011.3
20260508191536 20 86 6.4 14.5 0.00 0.05 0.05 96 1011.9
20260508190028 20 59 8.0 16.1 0.00 0.05 0.05 96 1011.9
20260508184528 20 77 4.8 11.3 0.00 0.05 0.05 95 1012.3
20260508183032 20 44 4.8 16.1 0.03 0.05 0.05 95 1012.2
20260508181525 20 55 6.4 14.5 0.03 0.05 0.05 96 1012.0
20260508180026 20 57 6.4 14.5 0.03 0.05 0.05 96 1012.1
20260508174522 20 74 6.4 14.5 0.03 0.05 0.05 96 1012.2
20260508173020 20 85 9.7 14.5 0.03 0.03 0.03 96 1012.4
20260508171518 20 90 4.8 9.7 0.03 0.03 0.03 96 1012.8
20260508170019 20 80 6.4 14.5 0.03 0.03 0.03 96 1013.0
20260508164516 20 51 4.8 9.7 0.03 0.03 0.03 95 1013.2
20260508163027 19 53 6.4 12.9 0.00 0.00 0.00 94 1013.5
20260508161514 20 50 4.8 9.7 0.00 0.00 0.00 94 1013.9
20260508160020 20 67 4.8 16.1 0.00 0.00 0.00 93 1013.7
20260508154516 19 52 6.4 12.9 0.00 0.00 0.00 93 1013.2
20260508153011 19 79 6.4 16.1 0.00 0.00 0.00 93 1013.0
20260508151512 19 10 3.2 12.9 0.00 0.00 0.00 94 1013.4
20260508150030 18 68 4.8 12.9 0.00 0.00 0.00 94 1013.2
20260508144510 18 312 3.2 9.7 0.00 0.00 0.00 94 1013.6
20260508143011 18 53 1.6 8.0 0.00 0.00 0.00 94 1013.5
20260508141508 18 80 0.0 9.7 0.00 0.00 0.00 94 1013.6
20260508140013 18 82 4.8 9.7 0.00 0.00 0.00 93 1013.6
20260508134507 18 82 3.2 6.4 0.00 0.00 0.00 93 1013.8
20260508133009 18 23 1.6 9.7 0.00 0.00 0.00 92 1013.9
20260508131506 18 88 4.8 11.3 0.00 0.00 0.00 92 1013.5
20260508130005 18 5 4.8 12.9 0.00 0.00 0.00 91 1013.7
20260508124506 18 19 3.2 14.5 0.00 0.00 0.00 91 1013.7
20260508123004 18 51 1.6 6.4 0.00 0.00 0.00 91 1013.6
20260508121503 18 91 3.2 9.7 0.00 0.00 0.00 90 1013.3
20260508120003 18 57 4.8 8.0 0.00 0.00 0.00 89 1013.7
20260508114503 18 26 4.8 8.0 0.00 0.00 0.00 89 1014.0
20260508113004 18 302 3.2 9.7 0.00 0.00 0.00 89 1014.1
20260508111503 18 332 3.2 12.9 0.00 0.00 0.00 89 1014.0
20260508110111 18 14 1.6 12.9 0.00 0.00 0.00 89 1013.9
20260508104613 18 330 1.6 11.3 0.00 0.00 0.00 89 1013.8
20260508103103 18 71 3.2 8.0 0.00 0.00 0.00 88 1013.5
20260508101558 18 306 1.6 8.0 0.00 0.00 0.00 88 1013.9
20260508100058 18 42 4.8 12.9 0.00 0.00 0.00 88 1013.4
20260508094556 18 84 4.8 9.7 0.00 0.00 0.00 87 1013.4
20260508093056 18 18 6.4 17.7 0.00 0.00 0.00 86 1013.7
20260508091608 18 5 3.2 12.9 0.00 0.00 0.00 86 1013.9
20260508090055 18 39 1.6 6.4 0.00 0.00 0.00 86 1013.1
20260508084602 18 15 3.2 9.7 0.00 0.00 0.00 86 1013.1
20260508083058 18 360 3.2 9.7 0.00 0.00 0.00 86 1013.6
20260508081551 18 343 3.2 9.7 0.00 0.00 0.00 85 1013.4
20260508074547 18 350 3.2 8.0 0.00 0.00 0.00 85 1013.8
20260508073054 18 336 3.2 9.7 0.00 0.00 0.00 85 1014.2
20260508071545 18 5 4.8 11.3 0.00 0.00 0.00 85 1014.3
20260508070044 18 21 4.8 8.0 0.00 0.00 0.00 85 1014.4